Location: Châteauvieux
(47.2310°N, 1.3828°E)
Time: 02:08:44
(UTC+00:00)

NOSS 3-4 (C) - Pass Details

Date: 15 May 2026
Orbit: 773 x 1438 km, 63.4° (Epoch: 26 December)

Event Time Altitude Azimuth Distance (km) Brightness Sun altitude
Rises 20:40:16 0° 320° (NW) 3,650 8.7 -11.1°
Reaches altitude 10° 20:42:42 10° 324° (NW) 2,787 7.4 -11.4°
Maximum altitude 20:49:17 62° 45° (NE) 1,260 4.1 -12.2°
Enters shadow 20:55:45 15° 123° (ESE) 2,824 5.3 -13.0°
